Wind_Speed
8 7 7 10 11 10 8 3 1 2 2 3 5 3 6 8 8 3 2 4 6 6 9 10 12 13 13 11 14 15 11 6 2 3 3 5 14 20 21 23 23 24 24 20 16 14 12 12 11 12 11 11 12 11 13 15 16 16 16 16 15 15 15 16 17 15 13 13 12 11 9 9 10 11 10 10 10 11 11 11 10 10 11 12 12 12 13 13 13 13 13 15 17 17 16 17 19
9 9 9 11 12 6 2 2 1 2 2 4 6 4 8 9 6 2 6 8 7 7 11 12 14 15 17 14 15 18 13 11 9 7 7 14 18 18 21 22 23 24 23 19 17 15 12 12 11 12 12 11 12 12 13 15 17 17 18 17 17 17 16 17 17 16 14 13 12 11 9 9 10 10 10 10 10 10 10 10 10 10 11 11 12 12 13 13 12 12 12 14 17 17 16 18 19
9 10 9 9 7 5 1 1 1 2 2 5 6 4 8 6 2 7 12 11 9 9 12 14 15 9 13 16 13 13 8 9 13 9 8 15 15 15 21 21 22 22 20 19 17 15 13 12 11 13 12 12 12 13 14 15 17 18 18 18 18 18 18 19 17 16 14 13 12 11 10 9 9 9 10 10 10 10 10 10 10 10 11 11 12 12 12 12 12 12 11 13 17 16 17 19 20
9 8 9 7 2 2 1 1 2 2 3 5 5 5 5 2 7 10 12 11 9 10 11 13 12 6 12 17 10 10 8 8 13 11 6 10 15 17 21 21 21 20 19 18 17 16 14 12 11 13 13 12 12 13 14 14 17 18 18 18 19 18 19 20 19 17 15 13 12 11 10 9 9 8 9 10 10 10 9 10 10 11 12 11 11 11 11 11 11 11 10 13 16 16 17 20 21
10 7 8 5 0 1 0 1 2 3 5 3 4 4 3 8 11 10 9 9 8 9 11 12 9 7 12 11 5 6 7 8 14 16 9 12 20 20 18 19 21 21 20 18 17 16 14 13 12 13 13 13 13 13 14 14 16 17 17 19 19 18 19 20 20 18 15 13 12 12 10 9 10 9 9 10 10 10 9 9 11 12 12 11 11 11 10 10 10 10 10 13 16 15 17 19 20
9 8 7 5 2 2 0 2 3 4 6 5 6 5 1 7 9 8 7 7 8 10 12 12 12 11 10 8 7 6 7 9 13 16 15 18 21 20 18 19 21 20 20 19 18 17 15 13 12 13 14 13 13 13 13 13 15 15 16 19 19 18 19 20 20 18 16 13 12 11 10 10 10 10 9 10 10 9 9 9 11 11 12 11 10 10 10 10 10 9 10 13 15 14 17 17 18
7 5 3 3 2 2 1 3 4 5 7 7 8 8 3 6 8 8 7 6 7 11 13 11 13 13 8 6 7 10 15 13 14 17 21 23 23 21 20 19 19 18 19 20 18 17 15 13 13 13 14 13 13 13 13 12 13 14 16 18 17 17 19 20 19 18 16 14 13 11 10 10 9 10 10 10 10 9 9 10 10 10 10 10 10 9 9 9 9 8 9 13 13 13 16 16 16
9 4 1 1 1 1 2 4 5 5 7 7 8 7 3 6 6 8 7 4 3 6 11 12 15 14 7 8 7 11 19 20 22 25 26 26 24 22 20 19 18 16 19 21 19 17 16 14 13 13 13 13 13 13 12 12 12 13 15 16 15 16 19 19 19 17 15 13 12 11 10 9 8 10 10 10 9 9 9 10 10 10 10 9 9 9 9 9 8 7 8 10 12 13 14 15 15
9 4 1 0 1 2 3 4 5 7 10 9 9 5 6 6 5 8 6 5 4 4 10 13 16 15 8 12 10 8 16 23 27 26 25 25 24 22 19 19 18 17 19 21 20 18 17 14 14 13 12 13 13 12 12 12 11 12 13 14 14 15 18 19 18 16 15 13 11 11 10 9 9 10 10 9 9 9 9 9 10 10 9 8 9 9 8 8 7 7 7 9 11 13 14 14 15
4 4 1 1 2 3 4 4 5 7 10 10 11 7 7 6 5 7 6 8 7 8 14 15 16 16 11 11 8 7 15 22 25 24 24 25 23 21 18 17 18 19 19 20 20 19 18 15 14 13 12 12 12 12 12 11 11 12 12 13 12 14 18 18 17 15 14 12 11 10 9 9 9 10 10 8 8 8 9 9 9 9 8 8 9 9 8 8 7 6 7 8 10 13 13 13 14
1 3 2 1 3 4 5 5 6 7 10 10 8 6 6 6 4 4 7 8 9 12 15 15 14 15 13 9 5 11 22 24 25 24 23 23 23 22 19 16 15 18 20 21 20 18 17 15 14 13 13 12 11 12 12 11 10 10 11 12 12 13 16 16 15 15 14 12 11 10 9 9 9 10 9 8 7 7 8 8 8 8 8 8 8 8 7 7 6 6 7 7 9 12 12 12 13
2 3 1 2 3 4 5 5 7 8 9 8 5 3 5 6 5 4 6 8 9 10 11 13 11 12 12 7 5 14 23 23 26 27 23 22 23 22 20 16 14 16 19 20 19 18 16 15 15 13 13 12 10 10 11 11 10 9 10 11 12 13 14 14 14 14 13 12 11 10 8 8 9 9 8 7 7 7 6 6 8 8 8 8 7 7 5 5 6 6 6 6 8 11 11 11 12
3 3 1 3 4 4 6 6 7 8 7 6 6 5 5 6 5 3 5 9 9 4 8 16 14 12 11 6 6 11 17 22 29 29 26 24 23 22 21 18 17 17 18 17 17 16 16 16 15 14 12 11 9 10 11 11 10 9 10 11 12 12 13 13 13 13 13 12 11 10 8 8 8 8 7 7 6 6 5 6 8 8 9 8 7 6 5 5 6 6 6 6 7 10 11 10 11
3 3 2 3 4 4 5 6 7 6 6 5 5 6 5 3 5 5 6 9 9 6 10 17 15 13 10 7 7 7 12 23 29 29 28 26 25 23 21 20 20 19 18 16 16 16 16 15 15 14 11 9 9 10 11 11 11 10 10 11 11 11 12 12 12 11 13 12 10 10 9 8 8 8 8 7 6 5 5 7 8 8 9 10 8 7 6 6 6 6 6 6 8 10 11 10 10
5 2 2 3 4 4 5 6 7 6 5 4 1 6 6 2 5 8 10 10 8 7 12 15 12 10 10 11 8 7 16 27 30 29 29 27 26 24 22 22 21 19 18 16 15 15 15 15 14 12 11 9 9 9 10 10 11 11 11 10 10 10 10 12 12 12 13 13 11 10 8 8 7 8 8 7 7 6 6 8 8 8 10 10 9 7 7 7 6 6 6 7 9 10 11 9 9
4 2 1 2 4 5 5 5 6 6 5 1 3 4 6 6 8 9 10 11 6 6 10 7 5 8 11 11 13 17 25 31 30 29 28 27 25 24 23 22 21 18 17 16 14 13 12 13 13 12 11 9 9 9 8 9 10 10 11 10 10 10 9 10 10 13 15 12 11 10 8 8 8 8 8 7 7 7 8 8 8 8 10 10 9 8 7 7 7 6 7 8 9 10 10 9 8
3 3 2 4 4 6 5 4 4 3 3 4 5 3 6 8 9 6 7 12 10 11 13 9 7 10 12 14 23 29 32 33 31 29 26 24 23 22 20 19 21 20 17 16 14 12 11 11 11 11 12 9 10 10 8 9 9 10 11 10 11 10 9 9 9 11 13 11 10 10 9 9 9 10 9 9 8 8 9 8 8 8 9 10 8 8 7 7 8 7 8 9 9 10 10 9 8
3 3 3 4 4 7 6 5 4 2 1 1 6 4 6 8 6 3 5 11 11 13 13 14 15 14 17 23 31 32 33 33 30 28 24 22 21 19 17 16 18 19 16 16 14 12 12 11 11 12 12 10 10 11 9 9 9 10 10 10 10 10 9 8 8 8 9 10 9 10 9 9 9 10 10 11 11 10 10 9 8 9 9 9 8 7 7 8 8 9 9 10 9 9 9 9 8
3 2 4 5 5 8 7 8 6 3 0 4 2 5 5 6 5 3 5 9 10 13 12 16 18 14 17 23 27 29 31 30 28 27 22 19 20 19 17 16 15 15 13 14 14 13 13 12 11 12 13 12 10 10 9 9 10 10 10 10 10 10 9 8 9 8 8 9 9 11 10 9 9 9 9 10 13 13 12 9 8 10 9 8 7 6 7 8 9 10 11 10 9 9 8 9 9
4 3 3 6 8 10 9 9 7 2 2 5 4 5 5 6 5 2 6 8 8 11 12 14 16 14 14 15 19 24 25 25 25 23 20 18 20 20 19 17 16 15 13 13 14 14 13 12 11 11 12 11 9 10 10 10 12 11 9 10 10 10 10 9 9 8 8 8 10 12 11 10 9 7 7 9 12 15 14 11 9 9 9 7 7 6 6 8 9 11 11 11 10 10 9 9 8
3 4 5 7 7 8 8 7 6 4 4 5 5 5 4 6 5 4 7 6 5 8 14 18 19 18 17 14 14 18 19 17 17 19 20 20 19 20 20 19 18 15 13 11 10 10 10 12 13 11 11 9 6 8 10 11 13 12 10 9 9 9 10 8 7 7 7 9 11 12 11 10 9 7 8 8 10 14 15 13 12 10 9 8 7 6 7 7 8 11 12 12 12 11 11 9 8
3 6 10 10 8 8 5 7 10 8 6 6 4 3 1 4 4 5 7 5 2 4 13 20 20 19 18 15 13 13 12 10 12 17 19 20 19 19 21 20 19 16 14 13 9 7 7 9 11 11 10 8 5 6 9 12 14 12 10 9 9 9 10 10 8 9 9 10 12 12 11 10 8 8 8 8 9 13 15 15 14 11 10 9 9 7 7 8 10 12 13 13 13 11 11 10 10
4 6 9 11 11 9 2 5 8 9 8 7 3 1 0 3 3 3 6 6 2 5 10 18 18 18 19 16 13 10 9 7 11 17 19 21 21 21 21 21 21 18 16 12 10 11 11 10 9 9 9 8 5 6 8 11 12 10 9 8 9 9 10 11 10 10 8 8 11 11 11 10 8 8 9 9 10 13 15 16 14 12 11 9 9 9 8 10 12 13 12 13 12 11 10 10 13
7 6 7 9 10 8 3 6 6 7 6 7 5 2 1 3 3 2 6 6 8 15 15 18 19 19 19 14 11 10 9 9 13 20 23 23 22 21 22 23 21 19 16 12 9 10 11 10 9 9 9 8 7 8 10 11 10 8 8 7 8 9 9 10 9 8 6 6 9 10 9 8 8 8 8 9 11 13 14 15 14 12 12 11 11 10 10 11 12 11 10 10 11 11 9 9 15
8 7 6 7 6 3 7 6 4 3 4 4 6 5 5 1 3 4 6 7 10 17 19 19 18 16 15 13 12 10 9 10 14 19 21 22 24 23 23 23 21 19 16 12 8 6 6 7 8 9 8 8 10 12 14 13 10 10 8 6 7 8 8 8 6 6 7 6 8 10 9 8 8 7 8 10 11 13 14 15 15 15 14 13 12 11 11 11 11 11 9 7 8 10 10 11 16
8 8 5 6 3 3 7 6 4 2 2 3 4 5 7 5 4 2 5 8 6 13 19 18 17 15 13 12 11 10 9 10 13 17 21 25 27 26 24 22 20 18 16 12 10 8 8 8 8 8 7 7 10 14 15 14 12 10 9 8 7 6 7 7 7 6 6 7 9 9 8 8 8 7 9 10 11 12 13 14 16 17 16 15 13 13 13 12 12 13 12 10 8 8 10 13 15
6 5 5 6 1 2 4 6 4 4 2 1 1 3 6 6 3 2 1 6 6 8 14 16 16 14 13 12 10 10 9 11 16 20 21 23 25 25 23 21 20 17 15 12 10 10 10 10 10 8 7 8 10 12 12 13 12 11 9 10 9 7 6 7 7 7 5 5 7 6 5 5 6 6 8 10 10 10 10 11 14 16 17 16 14 16 17 15 14 15 16 16 14 11 12 13 12
2 0 4 5 2 2 4 7 1 2 3 4 2 2 5 5 2 4 4 3 7 8 9 12 14 12 12 13 10 8 9 14 22 21 17 18 22 23 23 21 20 16 14 12 10 11 11 10 10 8 8 11 11 12 12 11 10 11 10 8 8 10 9 6 4 6 5 4 5 5 4 3 4 5 6 8 10 10 8 5 8 13 18 18 16 17 17 16 16 16 18 19 17 14 13 14 11
2 3 3 6 3 2 4 6 3 3 4 5 4 1 5 5 5 7 7 3 6 8 7 9 11 11 11 11 9 8 10 16 20 19 19 22 23 24 24 22 21 18 16 14 11 12 11 10 9 8 8 11 12 12 12 12 10 10 9 7 8 9 9 8 8 7 8 7 6 6 4 3 3 4 5 7 9 11 9 7 6 9 14 18 18 18 16 16 16 17 19 18 15 12 11 15 12
3 1 2 4 5 3 5 7 6 5 5 6 7 1 5 7 9 9 7 7 7 7 6 7 8 10 11 9 8 9 11 14 15 18 22 24 25 27 26 23 22 21 18 14 11 12 11 10 10 9 9 10 12 12 11 11 11 10 7 7 9 8 8 6 7 8 9 9 7 4 3 2 2 3 4 6 8 10 12 11 7 5 9 15 18 19 16 15 16 17 18 16 14 12 10 15 14
2 2 2 2 2 5 7 8 9 6 4 8 8 2 6 7 10 10 6 10 10 7 5 5 7 10 10 9 10 10 10 14 18 23 25 25 28 28 27 25 23 21 17 15 13 13 12 12 12 10 10 10 11 12 12 12 12 10 7 9 10 8 7 6 6 7 8 10 10 8 6 3 2 2 4 5 7 9 8 9 9 6 7 13 17 17 14 14 15 14 15 15 14 13 11 13 12
1 1 4 2 4 7 8 8 12 9 4 10 9 2 6 7 8 9 8 12 11 9 7 5 6 10 11 9 10 10 10 15 22 25 25 27 30 29 28 27 23 20 18 17 15 14 14 13 12 12 12 12 12 12 12 12 12 9 8 11 10 8 8 8 7 6 5 10 13 11 8 7 5 2 3 4 4 6 6 7 9 8 7 11 16 16 15 16 15 11 12 15 15 14 14 13 12
1 4 5 4 5 7 7 7 14 12 6 8 9 4 4 4 6 6 4 13 11 9 7 6 6 9 11 9 9 10 10 12 16 21 25 29 31 31 31 28 24 21 21 19 17 17 17 14 13 13 14 14 14 13 13 11 10 11 12 12 9 7 8 9 7 7 9 13 14 11 10 10 8 4 4 5 4 4 5 7 9 10 7 8 12 15 17 19 17 13 13 16 16 16 15 15 14
3 2 4 5 6 6 4 5 11 12 9 7 7 5 4 5 4 5 6 9 9 7 6 7 6 7 9 8 8 10 10 11 12 16 25 31 32 32 33 30 26 24 23 21 19 19 17 15 14 13 14 14 14 14 13 12 10 11 13 11 9 9 9 8 7 9 13 14 13 11 10 10 10 8 5 5 4 5 5 4 5 7 8 7 9 12 14 16 16 15 15 16 18 17 15 13 13
2 2 0 5 5 5 5 5 8 10 10 8 7 7 7 6 4 3 5 7 8 7 6 7 7 8 8 8 9 10 10 10 11 19 28 33 33 33 34 32 29 27 25 23 21 20 17 17 15 13 12 12 13 12 12 13 11 10 11 10 10 10 10 8 6 6 7 9 8 8 7 8 9 9 8 5 4 4 4 4 2 2 5 7 9 10 10 12 14 15 15 17 20 20 17 12 8
1 3 1 3 5 5 4 2 5 9 8 6 7 7 7 6 5 6 6 7 9 9 7 6 6 7 8 8 7 9 11 9 13 24 31 33 34 35 36 35 32 30 28 26 23 21 19 18 17 15 13 11 13 13 11 11 11 10 10 11 12 10 9 7 5 3 2 2 3 3 5 5 5 7 8 7 7 6 3 4 6 8 8 7 10 11 11 12 13 16 16 18 21 22 19 14 9
3 3 3 4 5 5 5 3 1 4 5 4 6 6 7 6 5 5 5 5 6 7 8 7 6 7 8 9 8 9 9 9 16 27 32 35 35 36 38 36 34 32 30 29 27 24 22 20 19 17 14 11 12 12 11 10 10 11 11 13 14 12 10 7 6 4 3 2 1 3 5 5 5 6 5 5 6 6 5 5 7 8 6 4 6 10 13 15 14 16 16 15 17 18 18 16 14
4 3 3 5 4 4 3 1 1 4 4 3 2 1 5 5 5 5 2 4 6 7 8 7 7 8 7 9 9 8 7 7 13 19 24 31 32 33 36 35 35 34 32 32 29 27 24 22 20 17 14 12 10 10 12 12 11 13 13 13 13 11 11 8 6 6 5 4 5 6 6 4 5 6 5 3 2 3 5 6 6 5 2 2 2 3 7 12 14 16 16 14 14 16 17 17 15
4 3 3 3 4 4 4 2 4 6 3 2 4 4 5 6 6 7 5 4 6 8 10 9 9 8 8 9 8 8 7 7 11 12 16 25 29 31 32 32 35 35 33 33 31 29 27 24 21 18 16 13 11 13 15 13 12 13 12 12 11 10 10 8 7 8 5 4 5 6 4 3 1 1 3 3 3 3 3 3 4 3 0 2 3 3 3 5 9 14 17 17 15 14 15 16 16
2 2 2 2 4 4 4 3 3 4 2 1 3 4 5 6 6 6 8 7 6 9 11 9 8 8 8 9 8 8 9 7 11 13 13 20 26 27 29 31 33 34 33 33 32 31 30 26 22 20 18 15 14 14 14 12 12 12 10 10 11 9 9 9 8 8 6 6 5 4 3 2 2 1 1 3 3 3 2 0 2 2 1 2 3 4 5 5 5 7 12 16 17 16 15 13 14
4 3 2 3 4 5 4 2 1 3 2 1 2 5 5 5 6 7 8 8 6 8 11 9 7 8 7 8 7 7 9 8 10 13 11 13 20 25 29 32 32 33 33 33 34 33 31 27 24 23 21 18 16 14 14 15 13 13 10 11 12 9 10 11 9 8 7 7 7 4 2 2 1 0 2 3 3 2 1 0 1 2 1 0 2 4 5 6 6 6 7 10 14 17 17 15 14
4 4 6 6 6 8 6 1 3 5 5 4 2 2 5 5 6 8 7 6 7 7 11 11 8 7 6 6 7 6 7 7 8 11 12 14 20 25 28 31 31 31 33 35 35 33 31 28 26 25 23 21 18 16 17 17 14 14 13 14 14 12 12 12 10 9 8 7 7 5 3 2 1 2 1 2 2 1 0 1 1 2 2 3 3 4 5 6 7 7 8 10 12 14 16 17 17
3 4 5 6 7 9 9 3 3 2 2 4 4 4 4 5 5 9 7 7 10 8 10 11 9 8 8 7 8 8 7 7 7 7 10 15 20 22 24 29 31 31 34 36 35 33 31 28 27 26 24 23 21 19 19 17 15 14 14 15 15 14 14 13 11 9 8 6 6 6 6 5 2 2 2 2 1 1 0 1 2 2 3 4 3 4 6 7 8 8 8 10 12 13 14 17 20
3 4 5 5 6 8 10 7 2 3 3 3 3 5 2 4 7 9 6 6 9 8 9 10 9 10 11 10 10 10 10 9 8 7 10 14 18 22 25 29 32 34 35 35 35 34 32 29 27 27 25 24 23 22 20 17 15 15 14 13 13 15 16 13 10 9 8 7 6 7 6 5 4 4 3 2 1 1 1 1 2 3 3 3 4 5 5 6 7 8 8 9 11 12 13 16 20
5 5 6 6 4 3 3 3 3 1 2 5 4 4 2 4 7 8 6 5 7 9 11 11 9 11 12 12 12 12 12 10 9 10 12 14 19 25 29 32 33 35 36 36 36 35 33 30 28 28 27 26 25 23 21 18 16 15 15 13 12 14 15 11 9 8 9 8 6 7 7 6 6 7 6 4 2 2 2 2 3 4 4 4 5 6 7 8 8 8 9 9 10 12 13 14 18
6 3 2 2 2 4 3 2 2 2 1 5 6 4 2 4 6 7 5 4 7 8 10 10 11 12 11 11 11 11 11 11 11 10 11 17 24 29 31 33 33 34 37 37 36 35 34 32 30 29 29 27 26 24 21 18 17 17 17 15 13 14 13 10 9 11 10 9 7 7 8 8 6 5 6 6 5 4 3 2 1 2 3 4 6 7 9 9 9 10 11 11 11 12 14 14 15
6 4 2 3 4 4 3 2 2 3 3 7 7 5 4 4 5 6 4 5 7 6 5 5 9 11 9 9 8 9 10 10 9 8 9 15 24 29 30 30 29 32 35 36 35 34 34 33 32 31 30 27 26 25 22 20 19 19 19 17 16 16 14 12 14 15 13 11 10 7 7 8 8 6 6 5 4 4 3 1 1 2 2 3 4 5 7 8 9 11 12 13 13 13 13 14 16
5 4 3 4 4 5 3 3 2 1 5 8 7 6 4 4 6 6 6 6 4 4 5 2 5 8 8 8 7 8 8 8 9 8 8 10 15 21 25 26 28 30 32 33 34 34 34 34 33 32 30 28 27 26 24 22 20 20 20 18 17 17 16 16 18 18 15 13 12 10 9 8 8 7 6 5 5 5 5 3 2 3 3 4 4 5 6 9 11 13 14 15 16 16 15 15 16
5 4 4 3 2 3 1 2 1 3 7 6 5 5 4 5 7 9 9 7 3 3 4 5 7 7 7 8 7 7 7 9 9 9 9 8 9 14 20 24 27 29 31 33 35 34 33 34 34 32 31 29 28 26 25 24 22 21 20 19 18 17 17 18 18 16 15 15 13 12 11 10 9 9 7 6 7 7 6 5 4 4 5 6 7 8 9 10 12 14 16 17 17 18 18 18 17
3 4 4 3 2 1 3 4 3 4 5 6 5 4 4 4 6 8 9 7 5 5 6 7 8 9 8 8 7 7 7 9 9 10 10 9 9 14 21 26 28 30 33 35 35 35 34 33 35 34 32 31 30 28 27 26 25 23 21 20 19 18 18 18 16 16 16 16 13 13 13 11 10 9 8 8 8 7 7 7 6 7 8 10 10 11 12 12 12 13 14 15 16 17 19 20 20
4 5 5 5 4 3 4 3 2 3 2 5 4 2 4 4 6 7 6 6 4 2 3 4 5 5 7 5 6 8 8 9 10 11 12 11 13 18 23 27 29 31 34 36 37 37 35 34 35 34 32 32 31 30 28 27 26 24 22 21 20 20 19 18 16 15 16 15 13 13 13 12 10 9 8 7 7 8 8 9 9 9 10 11 10 10 11 12 12 13 13 14 14 15 17 19 21
3 2 4 5 5 5 4 3 4 2 1 3 2 2 4 4 6 7 7 8 8 5 1 1 2 3 7 5 5 6 6 6 9 11 12 12 15 21 23 25 29 32 34 35 36 38 36 35 36 35 33 33 32 31 29 28 26 25 24 22 21 21 19 18 17 15 14 14 13 13 12 11 11 9 7 6 6 7 8 8 9 9 10 11 11 11 12 12 13 13 14 15 16 15 15 17 18
3 2 3 5 6 6 4 3 0 2 2 3 1 2 5 4 6 7 7 9 8 7 5 2 1 2 4 5 5 6 5 4 5 7 9 10 14 19 23 26 28 30 32 34 36 38 38 37 36 35 33 33 33 31 30 29 27 26 25 23 22 21 20 19 18 16 14 15 15 13 12 11 10 9 8 7 6 7 8 8 9 10 10 10 10 10 10 10 11 12 13 15 16 16 17 18 18
3 3 3 3 2 1 2 1 1 2 2 3 1 3 5 4 4 6 7 8 8 6 5 5 4 4 2 1 1 4 5 6 5 5 7 11 13 18 22 25 29 32 34 36 38 39 39 38 38 35 33 33 33 32 31 30 29 27 26 25 23 22 21 20 19 17 16 16 16 14 13 11 10 9 8 8 8 8 8 9 9 10 9 9 10 10 11 11 11 13 14 15 15 16 17 20 20
5 6 4 1 1 1 1 1 2 2 2 3 4 5 4 3 4 6 7 5 5 5 4 6 7 6 4 5 5 4 3 1 3 2 6 10 12 17 22 25 29 33 35 37 38 38 38 38 38 36 35 35 35 34 33 31 30 28 27 26 24 23 22 20 19 18 18 18 17 15 13 11 9 9 9 9 9 9 10 10 10 10 11 12 12 13 14 15 14 14 15 15 16 16 17 19 21
5 5 3 1 3 3 2 3 3 3 3 3 4 4 3 5 5 1 3 3 4 5 6 7 9 8 5 6 7 7 7 5 5 3 3 8 11 18 25 28 30 33 35 36 37 37 37 36 37 36 35 36 36 35 34 32 30 29 27 27 25 24 23 22 20 20 19 19 17 15 12 11 10 11 10 10 10 11 11 12 12 13 14 14 14 14 15 16 16 16 16 16 17 17 18 19 21
5 4 4 3 1 0 1 2 2 3 3 2 3 4 5 6 2 5 6 5 6 7 6 6 8 8 7 7 7 7 8 7 6 5 1 4 10 17 24 27 31 34 34 35 35 35 37 36 36 37 36 35 36 36 35 34 32 30 28 28 27 25 24 23 22 21 19 18 17 15 13 12 12 12 10 10 11 11 12 13 13 14 15 14 15 15 14 15 15 15 16 17 18 18 18 20 21
5 3 3 4 3 1 2 4 2 2 3 3 2 3 6 7 3 4 6 5 5 6 5 5 5 7 7 6 6 6 7 8 7 6 6 3 2 12 21 22 22 24 25 27 30 32 34 36 37 38 36 36 37 37 36 34 32 31 30 28 27 26 25 24 23 22 20 18 16 14 14 13 12 11 11 11 12 12 13 13 13 14 14 14 15 15 14 14 15 16 17 18 18 19 20 21 22
Wind_Direction
274 279 293 311 302 301 298 233 116 272 172 269 259 240 258 247 248 241 143 86 81 66 71 73 60 75 87 91 94 76 53 49 33 112 122 138 132 131 130 135 141 142 139 137 135 128 121 119 117 122 133 135 133 134 129 133 145 151 150 149 149 153 157 156 152 145 137 131 128 129 130 128 128 124 121 122 125 123 121 122 120 118 117 116 114 109 103 101 100 100 105 110 108 106 103 102 103
277 283 291 303 286 271 288 197 115 264 172 274 259 217 251 266 267 131 96 79 87 96 79 66 58 77 95 97 94 80 63 62 70 82 110 122 118 124 133 139 141 140 140 139 136 130 125 125 122 126 133 137 134 133 131 132 143 153 154 153 153 156 159 160 155 148 142 137 135 134 136 135 134 129 126 126 129 127 124 126 124 121 121 121 119 115 110 106 104 105 109 114 112 108 104 103 104
286 290 298 315 282 227 303 278 184 232 189 256 260 250 258 262 237 100 89 84 90 90 76 62 50 58 90 81 73 79 91 93 95 95 111 122 112 126 137 138 139 138 139 139 137 130 126 126 125 130 133 134 130 130 133 134 142 152 156 154 158 160 162 162 158 153 147 144 142 140 142 139 137 132 131 134 135 133 129 129 129 127 126 124 122 119 115 110 108 110 113 117 115 110 105 104 110
292 294 295 321 324 208 333 243 189 217 218 253 266 286 303 79 100 91 90 94 93 85 78 74 57 23 78 85 81 77 95 95 96 103 112 123 120 134 139 137 138 136 137 140 137 129 125 127 128 130 129 129 126 128 133 137 144 154 158 157 160 162 164 163 160 157 152 150 148 145 147 142 137 135 135 139 141 138 134 131 130 130 128 127 126 124 118 114 113 115 119 123 119 112 108 109 116
298 293 277 278 343 216 202 228 196 209 223 242 270 295 4 83 90 90 101 106 105 101 98 97 89 53 63 80 95 85 102 94 89 99 109 123 124 129 136 137 137 135 138 141 137 130 128 131 128 127 126 126 125 127 132 138 147 156 160 160 161 161 165 164 160 160 157 155 154 150 150 146 138 137 141 144 143 138 135 133 131 132 132 133 132 129 123 119 117 120 126 128 123 115 113 114 119
298 297 273 237 252 302 190 263 234 233 239 233 262 274 118 103 98 103 99 89 87 93 96 97 103 90 70 61 66 79 101 106 99 108 121 128 126 124 126 132 134 135 139 143 140 133 132 134 127 125 126 126 124 125 130 138 147 158 163 163 163 162 166 166 160 162 161 159 158 153 152 151 141 140 147 149 145 139 141 140 136 136 137 140 136 132 128 124 122 127 133 131 125 119 119 117 120
281 298 279 204 263 282 181 259 250 257 250 228 248 264 210 130 118 113 84 67 68 81 94 103 108 97 85 84 68 66 81 100 109 117 126 126 126 124 124 126 127 131 140 145 141 135 135 134 128 128 128 125 124 124 129 137 146 158 165 164 164 162 164 165 161 163 163 162 160 156 155 150 144 146 151 152 147 143 149 147 143 143 143 144 140 136 131 127 127 132 137 135 129 123 123 121 118
260 264 284 154 276 253 192 255 254 260 258 246 261 271 172 141 120 110 95 85 91 101 112 115 104 89 83 97 86 74 81 94 105 116 124 125 126 124 126 125 123 131 144 147 143 140 138 137 134 132 130 126 123 124 128 135 143 155 162 162 163 161 161 162 161 163 161 163 162 159 157 148 149 153 154 154 151 146 151 151 149 151 150 147 143 137 132 129 133 138 141 140 133 128 126 123 118
245 226 286 222 234 256 230 246 246 250 260 259 265 269 120 122 106 115 121 124 140 112 108 110 98 96 101 92 94 93 86 93 101 108 114 118 124 123 124 128 131 136 146 149 147 145 142 142 140 136 133 129 124 123 127 132 141 149 157 160 161 161 159 160 162 162 161 163 164 162 158 148 151 160 157 154 153 148 151 156 155 158 159 154 144 136 135 133 134 143 148 145 137 134 130 123 120
221 202 238 271 237 266 258 253 246 245 252 249 249 230 134 128 131 127 125 127 123 89 96 102 97 107 116 99 103 114 105 106 104 101 104 111 119 122 122 127 135 138 146 151 149 148 146 147 144 141 138 132 128 124 123 129 139 143 150 154 156 162 160 161 163 161 162 164 165 164 160 150 153 160 157 152 154 151 151 159 162 165 165 160 148 139 140 136 137 145 149 147 140 136 132 125 122
239 221 184 277 268 261 253 253 255 251 251 249 253 219 149 128 125 112 110 115 108 108 112 103 101 114 113 105 118 123 118 115 111 108 109 114 119 123 122 126 136 141 147 150 151 151 149 150 149 146 141 137 131 125 121 124 135 136 141 148 151 160 161 162 162 160 163 164 162 163 161 155 154 156 154 151 156 155 155 162 166 170 171 167 154 144 139 134 139 146 150 148 141 136 132 129 124
242 269 161 227 238 242 246 253 259 262 259 246 248 214 141 105 105 113 118 118 111 124 125 110 117 118 108 113 135 123 117 115 118 121 123 124 124 124 128 134 139 142 147 150 153 154 152 154 153 149 147 145 137 130 123 121 130 132 134 143 146 153 158 159 158 158 163 163 161 163 165 161 157 157 156 154 160 162 161 168 171 173 176 173 161 153 145 140 148 153 160 152 142 138 134 133 128
210 253 204 238 230 238 253 265 265 274 279 235 204 181 143 106 122 134 126 123 110 102 108 121 132 116 113 132 130 120 115 120 125 128 131 131 131 133 136 138 133 136 143 148 151 155 155 157 157 154 152 149 146 138 128 125 129 132 136 143 145 148 152 154 155 159 166 166 162 165 170 167 164 165 162 159 166 169 171 178 176 173 180 181 172 168 164 156 162 163 165 158 144 140 138 136 133
202 232 209 253 261 258 260 268 272 285 284 236 182 145 135 125 137 114 104 104 83 74 99 120 126 109 123 137 120 126 124 125 126 130 135 133 137 137 135 131 127 130 136 140 143 149 154 158 160 160 158 154 156 144 134 133 133 137 140 143 145 147 150 156 161 168 171 167 164 169 173 171 174 174 167 166 173 175 183 188 180 175 182 185 181 178 172 161 163 166 160 155 148 140 141 138 134
202 251 229 262 279 281 269 263 271 279 276 265 193 124 118 111 112 80 85 92 76 91 99 115 125 115 147 152 135 144 131 126 125 130 135 135 138 136 133 129 129 130 131 133 133 139 148 155 160 161 159 152 156 150 140 139 137 140 142 145 148 148 150 157 167 174 173 169 168 171 174 173 178 177 169 174 180 177 192 196 186 182 184 185 186 178 163 153 153 160 151 148 148 140 141 139 134
203 230 255 282 276 282 272 269 285 274 263 12 50 102 94 63 75 78 95 103 92 73 72 94 136 140 156 147 131 131 127 126 125 126 127 127 129 131 134 134 137 135 130 133 136 141 145 145 145 147 149 144 147 151 148 148 145 144 147 149 150 153 153 155 164 170 172 172 171 172 177 177 177 178 173 186 187 180 195 201 191 185 187 185 184 174 155 147 146 148 146 148 148 140 141 139 136
228 202 242 281 268 271 258 261 298 291 269 107 106 101 91 81 78 93 106 100 97 76 65 57 67 120 130 120 123 125 125 126 128 127 124 123 122 122 125 127 137 143 143 145 146 147 145 141 133 130 140 140 139 148 155 156 154 151 156 156 152 155 152 153 159 164 170 174 175 175 177 176 175 177 178 187 191 192 198 199 194 187 189 189 184 174 157 146 146 147 148 149 148 144 145 144 144
239 186 213 250 253 258 252 266 301 42 345 157 149 138 104 115 100 65 77 86 95 89 83 73 67 89 105 115 123 125 128 130 133 134 130 127 124 120 120 121 129 138 145 149 152 152 144 140 138 136 144 141 133 146 158 161 165 161 160 161 157 157 152 156 161 165 177 177 180 179 171 174 178 183 185 185 188 195 198 198 194 187 190 193 188 176 162 152 149 150 151 153 155 154 152 152 156
225 194 197 225 242 252 263 280 294 63 294 289 138 117 85 122 121 42 87 103 103 97 97 92 87 91 101 116 124 127 133 137 142 142 138 133 132 131 133 134 126 119 115 120 132 145 147 140 137 135 141 146 135 138 148 151 161 161 160 167 162 158 160 162 163 171 183 183 185 178 168 176 184 188 189 189 190 189 191 198 195 189 190 193 191 176 166 157 150 152 155 158 160 162 158 155 158
220 209 214 234 240 254 275 279 275 88 86 340 30 74 71 122 121 64 119 130 131 124 124 115 115 120 119 123 126 134 140 148 152 144 137 134 138 141 143 141 126 113 103 96 103 119 132 132 130 124 127 138 133 137 144 142 151 154 154 167 167 163 166 164 167 175 182 186 186 179 174 186 198 202 198 198 199 188 183 190 192 192 188 189 191 178 169 161 152 155 158 161 163 168 169 160 153
208 192 226 248 252 265 292 319 328 29 58 34 34 31 65 133 121 120 129 130 164 159 147 139 141 142 136 136 134 140 150 159 150 133 129 129 136 140 138 132 120 117 113 103 94 101 116 119 122 120 115 110 105 135 144 143 150 156 152 161 169 168 167 162 169 177 190 202 196 188 183 194 209 214 204 200 200 188 181 183 186 193 191 190 194 184 173 164 159 162 164 168 168 173 180 181 174
216 206 225 248 265 273 305 14 7 5 18 38 50 17 73 146 114 128 128 129 212 206 161 148 144 142 135 138 140 143 158 163 131 124 126 124 128 129 128 125 120 121 118 113 97 88 113 118 116 114 107 88 87 131 138 145 151 154 157 160 167 168 167 168 182 190 203 210 203 200 196 199 207 213 210 202 197 187 183 184 184 192 196 194 195 188 173 167 169 168 169 176 174 176 183 191 200
215 231 223 234 243 248 266 47 15 4 359 4 4 287 172 122 87 77 95 122 84 50 142 141 127 129 129 134 139 145 163 155 124 125 124 121 122 122 124 123 120 121 120 122 105 95 105 108 116 121 112 86 93 134 132 147 154 154 161 165 171 173 172 178 190 198 206 209 204 205 206 209 209 213 217 205 197 189 185 185 185 193 202 201 196 192 180 173 178 176 178 188 187 186 186 199 211
198 239 230 235 243 232 123 81 43 13 334 340 359 330 294 144 137 96 85 110 85 71 98 115 114 125 128 133 141 151 162 145 131 130 126 126 126 124 124 120 120 122 122 125 114 105 100 99 113 120 119 92 91 133 123 123 133 136 149 163 174 173 178 189 195 199 203 197 195 195 196 207 207 206 209 203 200 194 189 188 186 192 206 211 204 199 194 185 187 189 193 202 205 207 209 212 206
205 237 236 249 259 179 105 89 68 18 304 352 22 353 323 318 130 145 118 106 98 96 104 112 119 128 129 138 146 153 158 140 134 131 127 128 127 124 122 121 123 124 123 122 117 111 97 101 115 114 127 107 96 120 115 103 104 107 117 138 168 171 177 188 182 195 203 180 181 190 189 196 203 206 207 205 204 198 194 194 194 196 205 211 210 207 206 207 210 208 209 215 220 228 226 200 186
216 225 237 258 261 130 117 117 117 106 307 33 37 326 313 327 29 76 113 107 105 110 118 126 131 135 137 145 151 156 154 138 133 128 123 123 123 120 120 124 125 123 123 122 117 114 110 115 123 118 123 120 110 112 109 102 95 89 92 99 120 152 175 183 158 153 181 179 179 191 192 193 200 208 210 207 205 202 199 201 201 202 204 204 208 211 211 222 234 228 227 233 234 235 217 187 177
216 214 249 266 190 137 126 114 118 134 223 271 144 255 287 309 344 313 124 121 125 113 123 135 137 142 146 147 153 154 143 137 135 127 121 121 123 123 125 129 129 129 133 129 118 120 128 125 131 132 104 104 117 111 106 102 93 92 98 92 89 102 140 179 170 142 142 167 172 173 177 190 198 199 207 208 205 203 204 211 213 212 211 207 207 212 215 222 233 234 236 243 247 246 214 188 187
204 136 287 284 147 170 111 97 98 157 212 240 168 243 291 304 267 219 236 153 141 139 138 140 139 146 148 147 150 141 133 137 135 129 126 128 131 132 134 136 135 136 140 135 124 123 126 122 132 140 101 97 113 110 102 98 97 104 104 96 85 88 99 110 132 142 148 145 134 136 150 186 209 199 200 206 202 199 197 210 222 220 218 217 215 217 222 224 227 232 238 245 248 247 218 196 198
94 44 315 306 325 230 149 129 200 186 196 198 138 319 295 287 262 219 211 179 139 142 145 142 139 144 144 144 141 131 134 137 135 134 136 138 140 139 138 140 141 140 140 139 132 122 115 111 124 132 112 101 106 111 104 98 109 114 103 98 95 97 101 84 76 111 142 142 116 100 111 143 187 190 191 195 196 201 206 209 221 223 223 227 223 218 225 229 229 232 237 244 246 249 224 198 197
70 17 270 300 327 280 196 166 180 183 185 154 121 182 270 266 258 243 202 149 129 129 143 151 137 138 145 143 139 137 139 138 139 142 142 142 142 141 141 144 147 145 145 148 140 125 114 112 117 122 124 112 107 119 115 104 114 117 103 109 108 110 127 106 73 88 115 132 138 118 93 100 156 161 164 182 195 207 215 211 208 221 225 231 228 222 227 229 227 227 231 240 246 251 222 192 193
70 317 285 231 284 274 229 184 174 190 177 124 110 168 250 262 258 255 208 138 132 143 166 173 142 138 149 148 145 146 146 146 148 150 149 147 144 144 144 146 150 148 147 149 144 135 127 123 122 122 129 126 122 126 116 103 111 114 108 120 116 107 124 119 83 81 96 112 127 131 114 92 94 111 119 159 203 214 216 203 197 208 216 222 227 226 231 235 229 222 222 231 245 246 214 190 194
135 227 291 244 200 255 251 192 172 184 173 129 122 189 250 264 273 269 207 151 137 154 182 195 158 144 152 157 151 151 153 151 152 156 156 150 148 149 148 148 151 150 146 147 148 145 139 134 133 128 128 128 131 133 123 109 105 106 111 120 116 97 103 107 91 78 88 116 125 124 114 100 87 83 119 142 190 198 192 190 194 204 210 211 213 215 223 233 231 220 214 218 235 237 215 205 204
227 173 240 251 199 241 262 197 176 171 160 147 143 174 237 248 295 321 161 147 137 151 179 195 174 151 155 159 155 153 156 155 157 162 159 152 152 154 153 152 154 151 149 151 152 152 147 144 141 131 125 121 122 129 128 116 101 98 103 108 108 97 97 100 93 82 93 117 124 114 106 106 102 104 124 117 107 127 162 192 200 200 205 203 198 202 215 223 219 216 214 212 229 235 217 214 213
292 209 227 256 223 238 265 191 178 156 147 176 172 181 224 239 283 11 80 119 127 151 179 194 182 158 159 159 154 156 160 162 165 164 158 154 156 157 156 155 155 154 154 156 156 156 153 148 146 136 130 125 122 125 125 124 119 107 104 109 107 91 87 93 89 88 95 104 106 101 103 109 113 116 117 108 103 101 114 161 189 194 206 209 196 195 209 218 214 215 220 216 225 230 219 217 217
298 332 272 278 264 258 251 186 177 160 157 179 176 196 237 248 231 149 136 132 140 174 192 193 183 161 161 161 155 159 166 170 171 165 159 157 157 156 157 156 157 158 157 158 159 160 156 154 155 149 144 139 136 139 136 138 144 131 116 130 130 95 83 92 85 83 92 93 93 94 98 109 119 121 119 119 140 141 130 149 157 231 237 226 217 204 199 209 211 214 224 223 218 219 221 222 216
43 343 30 300 309 304 292 159 168 165 164 183 167 187 231 246 237 205 201 178 162 183 194 187 184 166 159 162 160 161 171 179 171 164 160 160 160 158 158 158 159 160 159 160 162 163 162 162 164 162 159 151 149 157 159 158 161 152 129 129 133 112 97 97 76 72 120 118 113 112 103 101 120 129 131 131 130 139 157 177 207 252 260 242 234 229 215 211 210 211 219 225 220 217 219 225 222
59 9 4 336 333 324 343 44 100 118 123 207 184 183 229 245 253 239 228 205 175 183 195 196 184 172 165 164 167 165 175 184 170 166 165 164 163 159 159 160 160 161 161 162 165 167 169 171 172 170 169 163 163 168 172 178 166 145 127 121 122 117 121 117 83 83 104 77 40 121 120 96 100 118 130 146 145 147 143 147 187 220 238 247 241 237 232 227 222 218 218 224 226 223 222 229 233
36 40 9 344 328 301 321 78 359 55 96 227 230 186 257 269 288 292 253 188 198 199 199 207 192 179 174 168 171 173 177 173 165 167 166 164 161 159 160 160 160 162 163 166 168 170 173 177 178 176 173 170 177 175 162 161 152 139 131 128 126 118 126 126 101 104 98 57 44 79 118 123 122 122 110 103 109 139 141 140 159 177 204 276 278 247 240 235 231 229 228 226 226 229 231 232 234
19 35 31 338 302 301 320 14 26 36 64 294 347 358 289 285 291 295 283 211 212 214 203 205 196 178 172 173 177 181 183 163 159 166 164 164 163 159 160 161 163 165 166 169 172 172 175 180 182 180 179 178 179 173 163 155 149 150 142 134 136 127 126 124 107 114 111 91 79 82 123 168 178 142 123 110 88 95 112 125 150 158 83 333 327 323 304 264 241 235 235 234 231 233 239 238 237
6 11 37 288 284 305 318 336 35 65 111 253 348 343 295 293 301 290 267 240 224 216 211 207 193 181 175 175 173 176 187 175 162 170 169 165 165 161 161 164 166 166 168 171 173 175 176 179 182 182 182 182 177 173 177 175 166 165 154 139 141 129 127 131 120 120 115 112 121 129 175 217 321 359 139 144 127 120 110 96 192 202 122 36 346 327 322 315 294 261 245 243 241 240 243 244 241
316 294 243 241 274 285 280 277 23 48 27 273 326 346 313 281 278 275 264 254 242 210 205 211 202 191 178 166 168 173 183 178 161 170 173 163 166 167 166 168 168 168 170 173 175 177 178 178 182 184 183 183 179 176 183 183 172 166 156 146 149 143 142 148 139 131 127 128 141 154 187 259 312 123 199 192 165 153 135 136 251 256 231 27 360 341 320 313 313 304 279 262 254 247 245 244 242
304 276 234 229 253 275 274 285 47 29 352 290 223 340 299 275 256 258 262 260 251 203 188 202 209 201 189 177 184 184 187 193 179 175 175 168 169 171 170 169 169 170 173 176 178 179 178 177 182 185 184 185 183 181 184 184 175 168 161 153 156 156 154 157 152 143 139 136 145 155 158 159 80 61 145 191 181 200 28 358 302 321 315 303 339 346 328 321 313 307 302 290 279 264 250 242 240
279 259 239 228 239 263 264 259 66 85 270 264 179 169 266 293 279 259 248 238 237 212 186 195 197 196 199 201 203 198 197 204 201 180 167 167 168 168 171 172 172 174 177 179 180 181 179 178 183 185 185 186 186 184 185 184 178 173 170 167 168 166 159 155 151 146 147 140 137 146 147 150 141 66 73 110 155 183 183 315 292 317 319 301 311 327 332 336 325 314 308 300 296 286 260 244 244
243 246 254 254 241 249 247 233 166 173 241 284 199 170 218 284 277 266 244 226 234 223 208 201 192 195 199 202 205 207 206 196 189 172 156 164 168 167 172 176 177 177 178 179 181 182 182 181 184 187 187 187 187 189 190 189 183 177 179 181 179 179 173 162 149 144 152 153 142 141 142 147 157 150 126 83 109 195 230 247 263 283 297 296 289 293 305 321 326 321 312 306 306 300 280 260 254
230 223 241 259 259 275 252 200 164 178 287 302 266 197 211 267 268 278 275 245 239 221 215 209 196 197 197 200 204 206 208 198 189 177 160 163 169 171 175 177 179 179 178 180 181 182 183 184 185 187 189 189 189 193 195 191 184 181 187 187 177 177 175 166 159 159 163 164 153 149 154 152 146 154 163 156 153 201 245 245 262 274 271 279 281 278 279 290 308 316 313 310 312 311 303 284 268
217 201 260 304 336 344 13 55 38 18 315 261 255 206 222 277 271 281 292 265 247 222 207 204 204 204 194 194 198 195 199 200 197 186 167 164 171 176 178 177 177 178 178 181 181 182 182 185 187 186 188 190 190 194 195 190 187 190 193 190 183 176 173 173 174 175 175 173 169 158 150 152 148 152 163 165 178 202 220 230 281 302 286 283 287 288 281 282 297 305 303 301 303 309 312 304 286
178 130 41 21 350 331 349 8 38 24 300 257 244 214 213 266 275 261 251 254 247 204 169 196 212 209 195 193 197 185 183 192 191 181 166 163 168 175 176 174 174 174 178 181 180 181 182 185 188 187 189 192 192 194 194 189 191 197 195 192 193 187 181 184 182 181 181 178 181 177 156 160 166 166 165 170 179 181 184 203 353 8 9 349 327 315 293 285 292 293 291 287 286 293 304 311 301
135 105 71 47 346 333 338 332 62 147 264 255 245 243 227 242 269 261 248 269 272 147 128 139 191 197 197 198 197 180 166 167 170 163 158 153 155 166 171 170 171 172 175 179 180 180 181 184 187 185 187 192 194 194 193 189 192 198 196 194 199 196 191 190 186 185 186 182 186 186 176 176 180 181 184 189 186 173 182 218 299 328 337 330 314 305 286 279 281 281 282 281 280 281 287 300 305
98 87 80 76 317 323 305 262 195 210 246 253 242 245 248 240 250 257 252 257 263 179 167 153 156 175 201 207 194 178 158 148 155 157 156 155 151 160 166 167 171 171 173 177 179 180 181 184 186 184 186 191 194 194 193 190 192 197 196 197 202 198 193 192 191 193 192 188 189 188 188 190 188 193 195 185 184 188 204 237 275 290 298 297 288 283 276 275 278 279 283 284 282 281 279 284 293
134 129 123 147 194 276 262 237 222 225 254 282 265 227 254 273 259 265 265 248 233 215 205 191 178 169 183 204 183 161 156 144 150 163 164 165 165 166 167 169 172 173 174 176 178 180 181 183 184 183 185 191 194 194 194 193 194 197 198 201 205 202 198 198 198 198 194 193 195 193 193 193 189 194 194 188 200 222 241 255 268 279 292 300 298 293 286 283 285 285 287 291 290 285 281 280 281
198 175 155 164 167 191 233 220 208 228 267 297 296 226 230 244 250 272 294 294 297 267 204 209 213 159 135 169 167 155 166 156 155 171 175 175 174 173 172 171 172 174 174 174 176 179 180 181 184 184 184 189 193 194 194 195 197 198 201 205 208 207 207 205 202 200 196 196 198 196 196 198 197 197 198 206 224 235 242 252 266 281 296 303 299 293 287 285 286 286 286 290 293 291 287 284 283
262 199 159 179 188 190 218 208 177 167 344 291 279 239 223 222 264 293 314 312 317 324 315 150 212 158 111 123 158 160 171 169 166 175 180 181 175 173 173 173 174 174 174 174 175 178 180 181 184 186 186 189 193 194 195 198 198 198 201 206 207 207 210 207 201 201 202 200 196 195 200 202 203 204 205 211 220 228 239 252 265 280 294 299 294 289 288 287 288 290 291 291 290 288 290 292 293
279 279 205 214 205 179 202 258 229 81 343 279 247 298 297 307 309 305 295 283 289 309 321 348 224 211 154 159 168 161 156 163 182 180 176 178 175 175 176 176 176 174 173 175 177 179 180 181 184 186 186 189 193 195 196 197 197 196 200 204 206 208 209 209 205 202 202 202 200 201 205 205 208 212 213 219 230 239 248 257 270 282 290 296 297 295 296 297 293 291 292 296 295 290 289 290 294
207 241 230 261 275 153 129 245 345 37 276 273 262 267 278 288 299 295 284 273 275 303 347 23 26 24 11 299 196 178 170 168 188 187 167 172 177 178 177 177 178 177 177 178 179 180 181 184 186 186 185 187 192 197 198 197 196 197 200 203 205 207 208 209 208 205 204 202 203 208 211 212 214 217 223 231 236 241 253 268 278 283 284 286 289 290 292 293 291 287 284 287 294 297 295 289 289
228 236 222 102 43 324 21 174 183 181 227 271 276 260 253 234 237 273 286 285 288 309 8 34 19 26 18 358 12 358 341 224 230 216 163 171 179 178 178 180 181 181 181 180 180 181 183 185 187 188 188 190 194 198 198 197 196 198 201 203 204 205 205 205 203 204 207 205 207 212 215 215 212 215 222 227 236 249 265 275 278 278 278 279 282 285 287 286 286 287 285 283 286 293 298 294 290
295 285 280 120 158 175 181 206 190 174 208 252 271 268 258 237 211 209 329 7 35 17 34 36 19 19 14 14 28 15 1 344 313 327 148 172 184 185 182 182 183 184 184 183 182 182 184 186 187 189 190 190 192 195 195 195 197 200 202 202 204 204 204 203 202 203 205 206 208 212 211 208 208 216 226 235 250 262 267 270 273 276 279 280 282 286 287 286 284 286 288 289 288 289 294 294 292
331 320 298 302 284 116 67 255 202 140 171 219 268 273 257 246 202 86 49 43 58 51 56 56 39 34 26 30 46 34 15 1 341 343 2 177 188 194 192 187 186 187 186 184 184 185 186 187 188 189 189 187 189 192 194 195 196 199 201 201 203 205 204 204 204 205 206 206 208 209 206 208 215 224 237 251 261 264 265 269 273 276 278 281 284 289 291 287 284 285 287 290 291 291 291 291 291
323 302 258 251 251 258 296 283 284 108 150 173 181 264 267 269 295 52 52 53 50 42 54 68 60 53 40 33 47 51 32 7 352 354 357 359 189 198 201 196 187 185 188 188 187 187 187 188 189 189 188 186 187 190 193 195 195 196 200 202 203 203 204 205 205 206 208 208 208 207 206 212 223 234 246 257 260 263 267 272 276 278 282 286 288 293 295 289 283 282 282 285 288 289 289 287 287
Height
777 779 778 779 778 780 781 780 795 793 793 805 794 789 775 754 753 750 748 744 749 748 740 744 745 746 756 770 776 778 779 784 787 791 806 798 789 794 791 793 795 794 796 797 798 799 800 801 801 801 802 802 802 803 803 804 804 805 805 806 807 809 809 810 811 812 814 815 817 818 821 822 822 823 824 825 825 826 826 827 828 830 830 831 832 832 832 833 833 834 834 835 836 837 838 838 837
777 778 777 779 777 782 783 779 798 799 799 809 790 782 767 750 754 754 751 748 751 746 739 744 747 753 758 764 766 774 783 782 779 782 789 788 790 793 792 794 794 794 795 796 798 799 800 800 801 801 802 802 802 803 803 803 804 804 804 806 806 807 809 810 811 812 814 816 817 818 820 822 823 823 824 825 826 826 827 828 829 830 831 831 832 833 833 834 834 835 835 836 837 838 838 839 839
777 778 777 779 777 780 782 782 799 802 804 808 788 771 759 756 759 753 749 746 744 739 740 744 750 759 760 767 770 778 790 783 779 781 785 788 790 792 794 794 793 795 794 796 798 799 800 801 801 801 802 803 803 803 803 803 803 804 804 805 806 807 808 809 810 812 814 816 817 819 820 821 823 823 824 825 826 827 827 828 829 830 831 832 833 834 834 834 835 836 836 837 837 838 839 840 840
777 777 778 779 781 783 785 789 795 800 805 802 787 768 757 759 756 750 745 741 739 738 744 749 759 762 761 775 775 778 788 783 780 782 786 789 789 792 793 792 793 794 795 797 798 799 800 801 802 801 802 803 804 804 804 804 804 804 804 805 806 807 808 808 810 812 814 816 817 819 820 821 822 823 825 825 826 827 828 829 830 831 832 833 833 835 835 835 836 836 837 838 838 839 840 841 841
777 777 778 779 785 785 786 790 788 795 799 792 783 768 759 756 752 750 744 740 739 741 747 753 766 765 762 772 774 781 786 781 781 781 786 789 790 792 792 792 793 794 796 797 798 800 800 801 802 802 803 803 804 805 805 805 804 805 805 805 806 807 808 808 809 811 814 816 817 819 820 821 822 823 825 826 827 828 829 829 830 831 832 833 834 835 836 836 837 837 838 838 839 840 841 841 842
777 777 777 779 782 779 787 795 791 792 785 777 776 765 758 753 749 749 744 742 740 742 747 753 765 767 771 773 771 778 779 780 782 782 785 788 790 791 792 792 793 795 796 797 799 800 801 802 802 802 803 804 805 805 806 806 805 805 805 806 807 808 809 809 810 812 814 816 818 819 820 821 822 823 825 826 827 828 829 830 831 831 832 833 834 836 836 837 837 838 839 839 840 840 841 842 843
778 779 778 781 782 779 793 800 794 791 775 766 767 759 755 750 745 746 747 748 746 747 750 756 759 766 780 776 775 778 775 778 779 782 785 787 790 790 791 792 794 796 797 798 799 800 802 802 802 803 804 805 806 806 807 806 807 806 807 807 808 809 810 810 811 813 815 817 818 820 821 822 823 824 825 826 827 829 830 831 831 832 833 834 835 836 837 838 838 839 840 840 840 841 842 842 843
779 782 778 784 789 785 794 796 790 786 770 760 758 752 750 746 742 745 749 751 753 753 754 758 755 771 785 777 783 783 776 779 778 783 785 786 789 789 791 793 795 796 798 799 800 801 802 803 803 804 804 806 806 807 808 807 808 807 808 809 810 810 811 812 813 814 816 818 819 821 822 823 824 825 826 827 828 829 830 831 832 833 833 835 836 837 837 838 839 840 840 840 841 842 842 843 843
778 782 780 786 793 791 793 792 787 778 766 759 755 749 744 741 741 744 748 751 752 752 756 759 755 774 788 780 787 784 778 782 781 784 785 787 789 789 792 793 795 796 798 799 800 802 802 804 804 804 805 806 807 808 808 809 809 809 810 810 811 812 812 813 814 816 817 819 821 822 823 824 825 826 826 827 828 829 830 832 832 833 834 835 836 837 838 839 840 840 841 841 842 843 843 843 843
779 780 781 787 792 796 796 791 783 772 762 755 751 746 742 738 739 742 747 752 751 755 759 757 759 774 785 785 789 784 782 783 782 786 787 788 790 791 793 794 796 796 798 799 800 802 803 804 804 805 806 807 808 808 809 810 810 811 811 812 812 813 813 814 815 817 818 820 822 823 824 824 825 826 827 827 829 830 831 832 832 833 834 836 836 838 838 839 840 841 842 842 842 843 844 844 844
782 778 779 790 796 800 797 789 779 769 758 750 747 742 738 735 738 742 746 751 750 757 761 758 768 775 780 787 788 783 782 783 784 786 788 790 791 792 794 795 796 797 798 799 801 802 803 804 805 806 806 808 808 809 810 810 812 812 813 813 814 814 815 816 817 818 820 821 822 824 825 826 826 827 828 828 830 830 831 832 833 834 835 836 837 838 839 840 841 842 842 842 843 844 845 845 845
786 781 781 794 798 796 790 784 776 766 758 752 749 738 732 733 739 744 746 752 751 755 756 758 769 771 782 790 786 782 781 784 785 787 789 791 792 793 795 796 797 797 799 800 801 803 804 805 805 807 808 809 809 810 811 811 813 813 814 814 815 815 816 817 818 819 821 822 823 825 826 827 827 827 828 829 830 831 832 833 833 834 835 836 837 838 839 840 841 842 843 843 844 845 845 846 845
783 782 785 793 788 786 784 780 773 766 762 753 746 735 729 734 740 742 745 751 751 756 755 754 762 766 783 789 783 782 783 785 785 787 790 791 793 794 795 796 797 798 799 801 802 803 804 805 806 807 808 809 810 811 811 812 813 814 814 815 815 816 817 818 819 820 821 823 824 825 827 828 828 828 829 830 831 832 832 833 834 835 836 837 838 839 840 841 842 842 843 844 845 845 846 846 846
778 777 784 790 782 780 780 777 771 769 766 749 740 734 732 736 737 738 743 753 755 756 755 751 756 768 781 786 787 786 783 785 785 787 789 791 793 794 795 796 797 798 800 801 802 804 805 806 807 808 809 810 810 811 812 813 814 815 815 815 816 816 817 818 819 820 822 823 824 826 827 828 828 829 829 830 830 832 833 834 835 835 836 837 838 839 840 841 842 843 843 844 845 846 846 847 847
773 774 779 787 785 782 778 774 770 769 764 748 739 735 735 736 734 740 744 754 758 750 750 752 755 769 779 782 788 785 782 784 785 787 789 791 793 794 796 796 798 799 800 801 802 804 804 806 807 808 810 810 811 812 813 814 815 815 815 816 816 817 817 818 819 820 821 823 824 826 827 828 828 829 829 830 830 832 833 835 835 836 837 838 839 840 840 841 842 843 844 844 845 846 846 847 847
767 771 780 787 788 786 778 770 767 768 761 747 740 735 741 741 734 744 742 744 754 748 751 758 755 762 772 775 779 779 780 783 784 787 789 791 793 795 796 797 799 799 800 801 802 803 804 806 807 808 809 810 812 812 813 814 815 815 816 816 816 817 817 818 819 820 822 823 824 825 827 827 828 829 830 831 831 831 833 835 835 836 837 838 839 840 840 841 842 843 844 845 845 846 846 847 847
765 772 785 790 789 786 776 768 766 765 757 746 741 737 746 749 740 743 738 738 752 755 757 759 754 757 767 771 773 776 780 783 784 787 788 791 792 794 796 797 799 800 801 801 802 804 804 806 807 808 809 810 811 812 813 814 815 815 816 816 816 817 817 819 819 820 822 823 824 825 826 827 828 829 829 830 831 832 833 834 836 836 837 839 839 840 840 841 842 843 843 845 845 846 846 847 848
769 777 786 791 788 780 769 764 760 757 756 749 743 740 746 750 746 743 743 748 754 759 762 760 760 763 767 771 773 776 780 783 784 787 788 791 792 793 796 797 799 800 801 803 804 804 805 807 807 809 809 810 811 812 813 813 814 815 815 816 816 817 818 819 819 820 822 823 824 825 826 826 827 828 829 830 831 832 833 834 836 837 838 839 840 840 840 841 841 842 843 844 845 846 846 847 848
772 777 783 786 779 769 760 759 754 751 754 750 744 742 744 747 746 745 752 760 758 765 770 766 771 773 773 773 775 778 780 783 784 786 788 790 792 794 795 797 798 800 801 803 804 805 806 807 808 809 809 810 811 812 812 813 814 814 815 816 816 817 818 819 820 820 821 822 823 824 826 826 826 827 829 830 831 832 833 835 836 837 838 839 840 840 841 841 841 841 842 843 844 846 846 847 847
770 774 783 779 767 761 756 755 751 746 748 749 747 743 744 746 745 747 755 762 761 768 772 771 777 779 777 777 777 779 781 783 784 786 789 791 792 793 795 797 798 799 801 802 804 806 806 807 808 809 809 810 811 811 812 812 813 814 815 816 816 817 818 819 820 821 822 823 824 825 826 826 827 828 829 830 830 832 833 835 836 838 839 840 841 841 842 842 841 841 842 843 844 845 846 847 847
767 771 779 770 761 763 758 753 749 744 744 747 749 747 749 747 746 750 754 764 767 765 763 765 771 774 775 777 778 780 781 783 785 787 789 790 793 794 795 796 798 799 801 802 804 805 807 808 808 809 810 810 810 811 811 812 813 814 815 815 816 817 818 819 820 821 822 823 824 825 826 826 827 828 830 830 831 832 833 835 836 838 839 840 841 841 842 843 842 842 842 843 843 845 846 847 848
767 768 768 762 761 765 757 751 750 746 745 748 750 751 751 747 748 751 754 766 768 759 756 756 761 766 771 775 778 780 782 784 786 788 789 790 792 793 795 796 798 799 801 803 804 806 806 807 808 809 810 810 811 811 811 811 812 813 814 815 816 817 818 819 820 821 822 823 825 826 827 827 827 828 830 831 832 832 833 835 836 838 840 840 841 842 843 843 843 842 842 842 843 845 846 847 848
768 766 760 758 758 760 755 749 749 749 750 753 754 751 749 751 754 751 753 763 760 750 750 754 759 764 769 773 777 780 782 785 787 788 788 789 791 793 795 796 798 799 801 804 805 806 806 807 808 809 809 810 810 811 811 811 812 813 813 815 815 817 818 819 820 820 822 823 825 826 827 827 827 828 829 831 832 834 835 836 837 838 840 840 841 842 843 843 843 842 841 842 843 844 846 847 848
765 765 758 756 753 754 753 749 749 750 753 754 752 751 751 756 757 752 755 759 753 749 751 756 762 765 770 774 777 780 782 785 787 788 788 789 791 792 794 796 798 800 802 804 805 806 807 807 808 809 809 810 810 811 811 811 812 813 813 814 815 816 817 819 819 821 822 823 825 826 826 827 827 828 829 831 833 834 835 836 837 838 840 841 841 842 843 843 843 842 842 842 843 844 845 846 847
760 761 756 752 751 751 750 749 750 751 752 752 752 756 756 754 754 755 758 758 752 752 756 760 765 767 771 775 777 779 781 784 786 787 788 789 790 792 795 797 799 801 802 804 806 806 807 808 809 809 810 810 811 811 811 811 812 812 813 814 815 816 817 818 819 820 822 823 824 825 826 826 827 827 828 830 832 834 835 836 837 838 839 841 841 842 843 843 843 843 842 842 843 844 844 845 845
755 754 752 751 751 749 749 750 752 753 753 753 757 760 757 752 753 758 758 757 754 753 758 762 765 769 772 774 777 778 780 783 785 787 788 790 791 793 795 798 799 801 803 805 806 807 808 808 809 810 810 810 810 811 811 811 812 812 813 814 815 816 817 818 819 820 821 822 823 824 825 826 826 827 828 829 831 833 835 836 837 838 839 840 841 842 843 843 843 843 843 842 843 844 844 845 845
748 749 750 750 751 748 749 751 752 754 754 755 760 763 759 753 758 764 759 755 755 756 760 762 764 769 771 773 776 777 780 782 784 785 788 790 791 794 796 798 800 802 804 805 807 807 808 808 809 810 810 810 810 810 811 811 812 812 813 814 815 816 817 818 819 820 821 822 822 823 823 824 825 826 828 829 831 833 834 835 836 837 838 839 840 841 842 842 843 843 843 843 843 844 845 845 846
745 748 751 751 751 750 750 753 754 756 757 756 758 763 761 757 762 765 756 753 756 757 761 763 765 769 770 772 775 776 780 782 783 784 787 790 792 794 796 798 800 802 804 806 807 807 808 808 809 810 810 810 810 810 811 811 812 813 814 815 816 817 818 818 819 820 821 822 822 822 823 823 824 826 828 829 830 832 833 833 834 835 836 837 839 840 841 842 842 842 842 842 843 844 845 845 845
745 748 757 757 753 754 753 753 755 757 759 754 757 769 770 765 765 761 753 753 757 758 760 762 765 769 770 772 774 777 779 781 783 784 786 789 791 793 796 798 800 803 805 806 807 807 808 809 809 810 810 810 810 810 811 812 813 813 814 815 816 817 818 819 820 821 821 822 823 823 823 823 825 827 828 829 829 830 830 831 831 833 834 835 837 839 840 841 841 840 840 840 841 843 844 844 845
749 751 759 762 763 763 754 751 754 756 758 751 760 782 781 769 762 756 753 753 757 761 761 761 765 768 771 772 774 777 779 780 782 784 786 788 791 793 796 799 800 802 804 806 807 808 808 809 810 810 810 810 810 811 812 812 813 814 815 816 817 818 819 820 821 822 822 823 824 824 825 825 825 827 828 828 828 828 828 828 829 831 832 833 835 837 839 840 839 839 838 838 839 841 843 843 844
753 758 761 765 774 771 753 750 755 758 758 750 761 785 782 768 761 756 754 754 757 762 762 762 765 768 770 772 774 777 777 779 780 782 785 787 790 793 796 798 800 802 804 806 807 808 809 809 810 810 810 811 811 812 812 813 814 814 815 816 817 818 819 820 821 821 822 823 824 825 826 826 825 826 827 827 826 826 826 827 827 829 830 831 833 836 838 839 838 837 838 839 839 840 842 842 842
756 768 773 770 774 770 754 749 752 757 758 750 763 783 778 768 762 755 752 753 755 761 763 762 764 767 770 771 772 775 776 777 779 781 784 786 789 792 795 797 799 801 803 806 807 808 809 809 810 810 810 811 811 812 813 814 814 815 816 816 817 818 819 820 821 821 822 823 824 825 826 826 825 826 826 826 826 826 826 826 826 826 828 829 831 834 836 836 836 836 837 838 839 840 841 841 841
761 770 778 774 773 771 760 750 746 751 757 755 762 776 775 768 760 752 749 750 754 760 762 762 764 766 768 770 771 773 775 777 778 780 782 785 788 791 793 795 798 800 802 805 807 808 809 809 810 810 811 811 811 812 813 814 815 815 816 817 818 818 819 820 820 821 821 823 824 825 825 825 826 826 826 826 826 826 826 825 824 825 827 828 830 832 833 833 835 836 836 837 839 840 840 840 841
772 770 774 771 769 769 765 756 747 748 756 759 761 767 768 764 758 753 751 752 756 760 763 762 763 766 767 768 771 772 774 776 777 778 781 783 786 789 791 793 796 798 801 803 806 807 808 809 810 810 811 811 812 812 813 814 815 816 816 817 818 819 819 820 820 821 821 823 823 824 825 825 825 826 826 826 826 826 827 826 825 826 827 828 829 831 832 832 833 835 836 837 839 840 839 839 840
779 776 776 775 767 764 764 759 750 749 756 760 764 768 765 762 759 757 754 753 757 760 761 762 762 764 766 766 769 771 772 774 775 776 778 781 784 787 789 791 793 796 799 802 804 806 808 809 809 810 810 811 812 812 813 814 815 816 817 817 818 819 820 820 821 821 821 822 823 824 824 824 825 826 826 826 826 827 828 827 827 828 828 829 829 830 831 831 832 834 835 836 838 839 838 838 838
774 773 774 777 771 765 760 754 749 749 756 761 764 769 766 762 762 759 755 753 756 758 758 760 762 763 765 766 767 769 771 772 773 774 776 779 781 783 786 788 790 793 796 799 802 805 806 808 809 810 810 810 811 812 813 814 815 816 817 818 818 819 820 821 821 821 821 822 823 823 824 824 825 826 826 826 826 827 828 828 828 830 830 830 829 829 830 831 832 833 834 835 837 837 836 836 836
768 770 772 773 773 771 759 753 750 747 758 764 761 764 763 761 761 760 758 757 757 759 759 759 761 762 763 764 765 767 769 769 769 771 773 775 778 780 783 786 788 791 794 796 799 802 804 806 808 809 809 810 811 812 813 814 815 816 817 818 818 819 820 821 821 821 821 822 822 823 823 824 825 825 826 826 827 827 828 828 829 831 831 830 830 829 829 830 831 832 833 834 835 834 834 834 835
768 771 773 773 774 772 760 755 753 748 758 764 760 763 764 760 760 758 758 761 760 759 759 759 759 761 761 761 762 764 765 767 769 771 773 774 777 780 782 784 787 789 792 793 796 799 802 804 807 808 809 810 811 812 813 814 814 815 816 817 818 819 820 821 821 821 821 821 821 822 823 824 825 825 826 826 827 827 827 828 829 830 830 830 830 829 829 829 830 830 831 831 832 832 832 832 833
770 771 774 777 773 768 764 760 758 755 762 768 766 768 768 761 758 757 757 760 760 757 756 756 756 758 760 760 761 762 763 765 769 772 774 775 777 779 782 783 785 787 790 792 794 797 799 802 805 807 808 809 810 811 812 812 813 814 815 816 817 818 819 820 821 820 821 821 821 822 823 824 824 825 826 826 826 826 827 827 828 828 829 828 828 828 828 828 828 828 829 830 830 830 830 830 831
770 772 776 780 772 771 774 768 763 760 764 769 770 772 771 764 761 759 756 756 756 755 754 753 754 755 756 758 759 761 762 764 768 770 772 774 776 778 780 782 784 786 788 791 793 795 797 799 802 805 807 808 809 810 811 812 813 814 815 816 817 818 819 820 820 821 821 821 822 822 823 823 824 824 825 826 826 826 826 826 826 827 827 827 827 827 827 827 827 827 827 828 828 829 828 829 829
771 770 774 777 772 772 774 769 765 763 765 765 769 779 777 767 766 762 755 753 753 753 754 754 753 752 753 755 757 759 760 762 765 769 771 773 775 777 778 780 782 784 786 788 791 793 794 796 800 803 805 807 808 809 810 811 812 813 815 816 817 818 819 820 820 821 821 822 822 822 822 823 823 824 824 825 825 826 826 826 826 826 826 826 826 826 826 826 826 826 826 826 826 827 827 827 828
775 770 767 768 767 768 769 768 769 776 779 768 770 791 788 769 767 765 757 755 753 751 752 754 753 752 753 754 756 758 759 760 761 764 768 770 772 775 777 778 781 782 784 786 788 791 792 795 798 801 803 805 806 807 809 810 811 813 814 815 816 817 818 819 819 820 821 821 822 822 822 823 823 824 824 824 825 825 826 826 826 826 825 825 825 825 825 826 826 826 826 825 825 825 826 826 826
781 769 760 761 763 765 768 768 773 784 786 770 769 791 793 774 765 760 756 756 753 751 751 751 752 752 753 753 754 755 756 758 758 760 763 766 768 772 775 777 779 780 782 785 787 789 791 793 796 799 801 803 805 806 807 809 810 812 813 813 814 815 817 818 818 819 820 821 821 821 822 822 823 823 824 824 825 825 826 826 826 826 826 825 825 825 824 825 825 825 825 825 824 825 825 825 824
779 763 756 760 762 766 768 768 773 778 777 773 770 780 790 784 767 755 753 755 753 751 751 749 750 751 751 751 752 752 752 754 756 758 760 764 766 769 772 775 776 778 781 783 786 788 790 792 795 797 800 801 803 805 806 807 809 810 811 812 813 814 815 816 817 818 819 820 820 821 821 822 823 823 824 824 825 825 825 826 826 826 826 825 825 825 825 825 824 824 824 824 824 824 824 824 823
768 757 756 757 758 764 765 767 772 772 777 786 778 775 789 790 767 752 752 756 757 753 749 747 747 748 748 749 749 749 750 751 752 754 756 760 763 766 768 771 774 776 779 781 783 786 788 791 794 796 798 799 801 803 805 806 808 809 810 811 812 813 814 815 816 817 818 819 820 820 821 821 822 823 823 824 824 825 825 825 825 825 826 826 825 825 825 825 825 824 824 824 823 823 823 823 823
759 754 756 756 757 761 763 769 772 774 785 794 783 776 790 791 769 757 757 756 755 750 746 745 743 742 743 744 745 745 747 748 749 750 752 755 758 762 765 768 772 774 776 779 781 784 787 790 793 795 796 798 799 801 803 805 806 807 809 810 810 812 813 814 815 816 817 818 819 820 820 820 821 822 822 823 824 824 824 824 825 825 825 825 825 825 825 825 824 824 824 823 823 822 823 823 822
753 754 759 761 762 762 766 769 771 785 796 791 780 774 784 791 773 758 755 750 746 744 743 743 741 740 740 739 740 741 743 746 747 749 751 753 756 760 764 767 770 773 775 778 780 782 785 788 791 793 794 796 798 799 802 803 805 806 807 809 809 810 811 812 813 814 816 817 817 818 819 820 820 821 822 822 823 823 824 824 824 824 824 825 825 824 824 824 824 823 823 822 822 822 822 822 822
751 757 763 772 775 773 777 777 779 799 802 784 775 770 778 792 776 754 748 742 738 739 738 739 741 741 740 738 738 738 739 743 746 749 751 753 756 760 763 767 769 772 775 777 779 781 784 786 789 791 793 795 796 798 800 802 803 805 806 807 808 809 809 810 811 813 814 815 816 817 818 818 819 820 821 821 822 823 823 823 824 824 824 824 824 824 824 823 823 822 822 821 821 821 821 821 821
753 759 768 783 793 793 797 796 794 802 796 776 770 771 778 784 767 749 745 738 734 733 731 733 736 738 739 738 737 736 737 741 744 747 750 752 756 759 762 765 767 770 772 774 777 779 781 784 787 789 791 793 794 796 798 800 802 803 805 806 807 808 808 809 810 811 812 813 814 816 816 817 818 819 820 820 821 822 822 822 823 823 823 823 823 823 823 822 822 821 821 820 820 820 820 819 819
759 763 772 788 800 807 810 803 798 799 790 773 766 772 780 776 758 744 739 735 732 731 729 728 728 731 735 735 735 735 736 740 743 745 748 750 753 755 758 761 763 765 768 770 773 776 779 782 784 786 788 790 792 794 796 798 800 802 803 805 806 806 807 808 809 809 810 812 813 814 815 816 817 818 818 819 820 820 821 821 822 822 822 822 822 822 822 822 821 820 820 819 819 818 818 818 817
759 756 764 779 787 797 804 798 797 798 791 779 771 776 780 773 758 741 733 732 729 729 730 729 727 727 729 732 734 735 735 737 740 742 744 747 748 751 753 756 758 760 763 765 768 772 775 779 781 784 786 788 789 791 794 796 798 800 802 803 804 805 806 807 808 808 809 810 811 812 813 814 815 816 817 818 818 819 819 820 820 821 821 821 821 821 821 821 820 820 819 818 818 817 817 816 816
758 750 761 774 771 776 786 786 786 790 795 788 779 776 768 757 749 735 731 732 728 729 729 729 731 728 728 732 733 735 736 735 737 740 741 744 745 747 750 752 755 757 759 762 765 768 771 774 778 781 783 785 787 789 791 793 795 798 799 801 802 803 804 805 806 807 808 809 810 811 812 813 814 815 816 816 817 817 818 818 819 819 819 820 819 819 819 819 819 818 818 817 816 816 815 815 814
761 759 765 763 754 759 776 783 779 783 797 791 778 776 767 757 752 738 735 737 732 733 732 730 734 731 729 732 732 734 736 735 737 738 740 743 744 746 747 750 752 755 758 760 761 764 767 770 774 777 780 783 785 787 788 791 793 795 797 799 800 801 802 804 805 806 807 808 809 809 810 811 812 813 814 815 815 816 816 817 817 818 818 818 818 818 818 818 817 817 816 816 815 815 814 813 813
760 766 760 751 750 755 768 783 786 790 801 791 778 781 778 775 768 747 739 743 739 737 736 733 735 736 735 734 733 733 732 733 735 737 739 741 743 745 746 748 751 752 755 757 759 761 764 767 770 774 777 779 782 784 786 788 790 792 794 796 798 799 800 802 803 805 805 806 807 808 809 810 811 812 812 813 814 814 815 815 815 816 816 816 816 816 816 816 816 815 815 814 814 814 813 812 811
749 755 749 752 767 772 773 783 790 796 803 793 781 780 777 776 770 753 748 750 745 742 742 739 738 739 739 737 737 737 735 734 734 735 739 740 741 744 745 746 749 750 752 754 756 759 762 764 767 770 774 776 779 782 784 786 788 790 792 794 795 797 798 800 801 802 803 804 805 806 807 809 809 810 811 811 812 812 813 813 814 814 814 814 815 815 815 814 814 813 813 812 812 812 811 810 810
744 747 747 751 763 771 773 775 779 788 797 794 787 783 776 766 758 754 755 754 751 748 746 745 743 742 742 740 740 742 741 741 739 737 739 740 741 742 742 744 746 748 750 752 754 757 759 762 765 768 771 773 777 779 781 784 786 788 790 792 793 795 796 798 799 801 801 802 804 805 806 807 808 809 809 810 810 811 811 811 812 812 812 812 813 813 813 812 812 811 811 811 810 810 810 809 808
756 758 758 757 757 761 767 770 771 780 792 796 795 792 777 756 748 752 755 753 751 749 747 746 744 743 744 743 744 744 743 744 742 740 740 740 741 741 741 742 743 745 747 749 751 754 756 759 761 764 768 771 774 776 779 781 783 785 788 789 791 793 794 796 798 799 800 801 802 803 805 806 806 807 808 808 809 809 809 810 810 810 810 810 811 811 811 811 810 810 809 809 809 809 808 808 807
762 765 763 762 762 764 774 781 775 774 784 791 796 800 782 755 746 750 753 752 750 749 749 749 746 744 744 743 744 744 743 743 742 741 742 741 741 742 742 742 744 746 749 750 752 753 755 757 758 761 764 767 770 773 776 778 780 783 785 787 789 790 792 794 796 798 799 800 801 802 803 804 805 805 806 806 807 807 807 808 808 808 808 808 809 809 809 809 808 808 807 807 807 807 807 806 806